Regional Weather Roundup
Issued by NWS Midland/Odessa, TX

Skip options and go directly to product.
Home | Oldest Version | Previous Version | Current Version | All | Text Only | Save Text | Print | Product List | Glossary On

Skip product version selection by date and time.   
691
ASUS44 KMAF 210410
RWRMAF
MIDLAND AREA WEATHER ROUNDUP
NATIONAL WEATHER SERVICE MIDLAND TX
1100 PM CDT MON OCT 20 2014

...IN SOUTHWEST TEXAS AND SOUTHEAST NEW MEXICO...

CITY           SKY/WX    TMP DP  RH WIND       PRES   REMARKS
ALPINE         CLOUDY    58  57  96 CALM      30.19S
ANDREWS        FAIR      61  52  72 SE5       30.11R
ARTESIA        NOT AVBL
BIG SPRING     PTCLDY    64  52  64 E7        30.11S
CARLSBAD       CLOUDY    62  60  93 N5        30.10S
DRYDEN           N/A     66  61  84 NE5       30.05R
FORT STOCKTON  MOCLDY    64  60  87 SE8       30.09R
GUAD PASS      MOCLDY    55  52  89 NE28      30.15R
HOBBS          CLOUDY    61  59  94 CALM      30.13S
MARFA          MOCLDY    57  55  94 NE5       30.16R
MIDLAND AIRPK  CLOUDY    68  53  57 SE7       30.10S
MIDLAND INTL   MOCLDY    68  51  54 SE9       30.09R
ODESSA         CLOUDY    69  51  52 SE9       30.11R
PECOS          DRIZZLE   64  62  94 CALM      30.07S
PRESIDIO       CLOUDY    68  58  71 NE10      30.03R
SEMINOLE       MOCLDY    61  53  76 E3        30.12S
SNYDER         PTCLDY    64  53  68 SE5       30.10R
WINK           MOCLDY    64  63  96 CALM      30.07R
$$
...OTHER STATIONS IN TEXAS...

CITY           SKY/WX    TMP DP  RH WIND       PRES   REMARKS
ABILENE        PTCLDY    64  53  67 S6        30.08R
AMARILLO       MOCLDY    63  52  67 S3        30.13R
AUSTIN         MOCLDY    62  59  90 CALM      30.04R
BROWNSVILLE    CLEAR     75  69  81 NE5       29.94S
CORPUS CHRISTI PTCLDY    75  71  87 E10       29.98S
DALLAS FTW     PTCLDY    69  59  70 S3        30.05R
DEL RIO        CLOUDY    73  63  70 NE5       30.00R
EL PASO        CLOUDY    62  53  72 CALM      30.07S
HOUSTON INT    MOCLDY    65  58  78 NE3       30.03S
LUBBOCK        PTCLDY    60  52  74 SE5       30.11S
SAN ANGELO     CLEAR     62  50  64 CALM      30.07R
SAN ANTONIO    MOCLDY    72  59  63 NE5       30.04R
WACO           CLEAR     62  58  86 CALM      30.06R
WICHITA FALLS  NOT AVBL
$$
...OTHER LOCATIONS IN NEW MEXICO...

CITY           SKY/WX    TMP DP  RH WIND       PRES   REMARKS
ALAMAGORDO     NOT AVBL
ALBUQUERQUE    CLOUDY    58  46  64 E9        30.18S
CANNON AFB     PTCLDY    57  53  86 W2        30.16S
CLOVIS         PTCLDY    55  50  82 W7        30.18S
HOLLOMAN AFB   LGT RAIN  59  59 100 NE6       30.10R
ROSWELL        RAIN      59  56  89 NE6       30.13R
RUIDOSO        CLOUDY    46  46 100 SE12      30.29R
SANTA FE       MOCLDY    51  48  89 E3        30.23R
TRUTH OR CONSE CLOUDY    58  54  86 CALM      30.14R
TUCUMCARI      MOCLDY    60  50  69 SW6       30.13S
$$

USA.gov is the U.S. government's official web portal to all federal, state and local government web resources and services.